User: anonymous   Login
Location: Noordwijk
(52.2400°N, 4.4500°E)
Time: 18:18:27
(UTC+00:00)
Language:

AAUSAT CUBESAT 2 - Orbit

View from above orbital plane
View from above orbital plane
View from above satellite
View from above satellite

Ground track
Ground track

The orbit data is extracted from the following two-line orbital elements,

1 32788U 08021F   22333.87717515  .00005036  00000-0  41881-3 0  9992
2 32788  97.5497 313.6441 0009848 287.7679  72.2469 14.99102754793201
Epoch (UTC): 29 November 2022 21:03:07
Eccentricity: 0.0009848
inclination: 97.5497°
perigee height: 563 km
apogee height: 576 km
right ascension of ascending node: 313.6441°
argument of perigee: 287.7679°
revolutions per day: 14.99102754
mean anomaly at epoch: 72.2469°
orbit number at epoch: 79320

The dashed part of the orbit path shows where the satellite is in the earth's shadow,  

DLR